VTK601 UEEE-UOHH

Flight info

Callsign VTK601
Flight time 2h 2m
Altitude 36000
Route TEGMA6E TEGMA R494 SUBOS W190 OLEMU/K0783F260 B153 AGADA M131 TIKMI TIKMI1B
Aircraft MD11/H-SDE1E2E3FGHIJ2J3J4J5M1RWXY/LB1D1

Departure

Time 2026-04-14 08:11
Airport Platon Oyunsky Yakutsk International Airport (UEEE)

Arrival

Time 2026-04-14 10:14
Airport Khatanga Airport (UOHH)
Time Latitude Longitude Altitude Speed Heading
2026-04-14 07:57 62.08776 129.75471 339 ft 0 kts 299°
2026-04-14 08:07 62.08776 129.75470 333 ft 0 kts 299°
2026-04-14 08:07 62.08780 129.75435 338 ft 5 kts 280°
2026-04-14 08:07 62.08764 129.75378 333 ft 4 kts 209°
2026-04-14 08:08 62.08735 129.75376 335 ft 5 kts 184°
2026-04-14 08:08 62.08669 129.75357 334 ft 13 kts 189°
2026-04-14 08:08 62.08577 129.75302 333 ft 14 kts 200°
2026-04-14 08:08 62.08492 129.75208 336 ft 14 kts 211°
2026-04-14 08:09 62.08407 129.75113 335 ft 14 kts 196°
2026-04-14 08:09 62.08333 129.75179 334 ft 12 kts 129°
2026-04-14 08:09 62.08291 129.75328 336 ft 12 kts 120°
2026-04-14 08:09 62.08250 129.75480 336 ft 12 kts 119°
2026-04-14 08:10 62.08216 129.75623 337 ft 9 kts 101°
2026-04-14 08:10 62.08241 129.75752 340 ft 11 kts 46°
2026-04-14 08:10 62.08327 129.75893 337 ft 41 kts 37°
2026-04-14 08:10 62.08803 129.76655 333 ft 128 kts 37°
2026-04-14 08:11 62.09691 129.78073 499 ft 176 kts 37°
2026-04-14 08:11 62.10692 129.79658 1352 ft 179 kts 35°
2026-04-14 08:11 62.11660 129.81199 2514 ft 171 kts 34°
2026-04-14 08:11 62.12622 129.82744 3502 ft 175 kts 33°
2026-04-14 08:12 62.13691 129.84460 3855 ft 210 kts 34°
2026-04-14 08:12 62.14940 129.86465 4031 ft 237 kts 34°
2026-04-14 08:12 62.16300 129.88646 4360 ft 248 kts 34°
2026-04-14 08:12 62.17685 129.90888 5145 ft 251 kts 33°
2026-04-14 08:13 62.19178 129.92815 5970 ft 251 kts 19°
2026-04-14 08:13 62.20877 129.93476 6794 ft 250 kts 354°
2026-04-14 08:13 62.22522 129.92423 7564 ft 250 kts 326°
2026-04-14 08:13 62.23816 129.89924 8273 ft 254 kts 309°
2026-04-14 08:14 62.24918 129.86904 9060 ft 259 kts 305°
2026-04-14 08:14 62.26000 129.83768 9858 ft 265 kts 304°
2026-04-14 08:14 62.27105 129.80555 10607 ft 270 kts 303°
2026-04-14 08:14 62.28232 129.77287 11351 ft 275 kts 304°
2026-04-14 08:15 62.29382 129.73956 12112 ft 280 kts 304°
2026-04-14 08:15 62.30553 129.70570 12887 ft 285 kts 304°
2026-04-14 08:15 62.31769 129.67163 13660 ft 290 kts 308°
2026-04-14 08:15 62.33166 129.63864 14041 ft 310 kts 311°
2026-04-14 08:16 62.34750 129.60420 14182 ft 337 kts 313°
2026-04-14 08:16 62.36477 129.56747 14319 ft 361 kts 313°
2026-04-14 08:16 62.38313 129.52869 14691 ft 375 kts 313°
2026-04-14 08:16 62.40191 129.48898 15347 ft 381 kts 313°
2026-04-14 08:17 62.42097 129.44858 16019 ft 387 kts 313°
2026-04-14 08:17 62.44027 129.40755 16679 ft 392 kts 313°
2026-04-14 08:17 62.45979 129.36590 17348 ft 398 kts 312°
2026-04-14 08:17 62.47991 129.32424 17960 ft 405 kts 317°
2026-04-14 08:18 62.50290 129.28818 18568 ft 412 kts 325°
2026-04-14 08:18 62.52776 129.25628 19119 ft 418 kts 328°
2026-04-14 08:18 62.55347 129.22585 19645 ft 424 kts 329°
2026-04-14 08:18 62.57965 129.19543 20184 ft 430 kts 329°
2026-04-14 08:19 62.60610 129.16448 20693 ft 435 kts 329°
2026-04-14 08:19 62.63281 129.13280 21208 ft 440 kts 328°
2026-04-14 08:19 62.65976 129.10046 21726 ft 445 kts 328°
2026-04-14 08:19 62.68661 129.06796 22241 ft 450 kts 328°
2026-04-14 08:20 62.71441 129.03410 22773 ft 455 kts 328°
2026-04-14 08:20 62.74224 129.00011 23293 ft 460 kts 327°
2026-04-14 08:20 62.77033 128.96569 23762 ft 465 kts 327°
2026-04-14 08:20 62.79869 128.93088 24207 ft 469 kts 327°
2026-04-14 08:21 62.82724 128.89579 24695 ft 472 kts 327°
2026-04-14 08:21 62.85597 128.86041 25133 ft 476 kts 327°
2026-04-14 08:21 62.88496 128.82458 25566 ft 480 kts 327°
2026-04-14 08:21 62.91410 128.78849 26009 ft 484 kts 327°
2026-04-14 08:22 62.94360 128.75190 26461 ft 488 kts 327°
2026-04-14 08:22 62.97297 128.71537 26774 ft 494 kts 327°
2026-04-14 08:22 63.00298 128.67792 27182 ft 498 kts 327°
2026-04-14 08:22 63.03319 128.64017 27606 ft 502 kts 327°
2026-04-14 08:23 63.06368 128.60200 27982 ft 505 kts 327°
2026-04-14 08:23 63.09473 128.56303 28387 ft 509 kts 327°
2026-04-14 08:23 63.12517 128.52474 28759 ft 512 kts 327°
2026-04-14 08:23 63.15666 128.48500 29131 ft 516 kts 327°
2026-04-14 08:24 63.18753 128.44595 29478 ft 519 kts 326°
2026-04-14 08:24 63.21893 128.40589 29842 ft 522 kts 326°
2026-04-14 08:24 63.25046 128.36522 30232 ft 525 kts 326°
2026-04-14 08:24 63.28212 128.32440 30582 ft 527 kts 326°
2026-04-14 08:25 63.31385 128.28363 31019 ft 526 kts 326°
2026-04-14 08:25 63.34549 128.24307 31483 ft 524 kts 327°
2026-04-14 08:25 63.37699 128.20270 31957 ft 521 kts 327°
2026-04-14 08:25 63.40835 128.16247 32408 ft 519 kts 327°
2026-04-14 08:26 63.43958 128.12233 32848 ft 517 kts 327°
2026-04-14 08:26 63.47065 128.08227 33283 ft 515 kts 327°
2026-04-14 08:26 63.50157 128.04229 33702 ft 512 kts 327°
2026-04-14 08:26 63.53237 128.00234 34121 ft 510 kts 327°
2026-04-14 08:27 63.56304 127.96246 34441 ft 508 kts 327°
2026-04-14 08:27 63.59352 127.92247 34708 ft 508 kts 327°
2026-04-14 08:27 63.62396 127.88228 34965 ft 508 kts 327°
2026-04-14 08:27 63.65442 127.84201 35222 ft 507 kts 327°
2026-04-14 08:28 63.68481 127.80179 35467 ft 507 kts 327°
2026-04-14 08:28 63.71519 127.76153 35701 ft 507 kts 327°
2026-04-14 08:28 63.74558 127.72123 35937 ft 507 kts 327°
2026-04-14 08:29 63.80675 127.63986 36032 ft 511 kts 327°
2026-04-14 08:29 63.86778 127.55824 36045 ft 507 kts 327°
2026-04-14 08:30 63.92849 127.47656 36042 ft 507 kts 327°
2026-04-14 08:30 63.98511 127.38275 36039 ft 502 kts 313°
2026-04-14 08:31 64.03313 127.26790 36023 ft 500 kts 309°
2026-04-14 08:31 64.10333 127.09159 36048 ft 501 kts 309°
2026-04-14 08:32 64.15091 126.97537 36037 ft 500 kts 310°
2026-04-14 08:32 64.19859 126.85929 36042 ft 500 kts 310°
2026-04-14 08:33 64.24619 126.74282 36028 ft 500 kts 310°
2026-04-14 08:33 64.29369 126.62535 36036 ft 501 kts 309°
2026-04-14 08:34 64.34111 126.50754 36048 ft 501 kts 309°
2026-04-14 08:34 64.38854 126.38977 36045 ft 501 kts 309°
2026-04-14 08:35 64.43590 126.27174 36039 ft 500 kts 309°
2026-04-14 08:35 64.48323 126.15326 36043 ft 501 kts 309°
2026-04-14 08:36 64.53040 126.03441 36048 ft 501 kts 309°
2026-04-14 08:36 64.57744 125.91519 36049 ft 500 kts 309°
2026-04-14 08:37 64.62438 125.79557 36047 ft 500 kts 309°
2026-04-14 08:37 64.67119 125.67570 36049 ft 500 kts 309°
2026-04-14 08:38 64.71786 125.55542 36058 ft 500 kts 309°
2026-04-14 08:38 64.76450 125.43468 36085 ft 500 kts 309°
2026-04-14 08:39 64.81099 125.31365 36062 ft 499 kts 309°
2026-04-14 08:39 64.85701 125.19161 36062 ft 499 kts 308°
2026-04-14 08:40 64.90284 125.06911 36063 ft 498 kts 308°
2026-04-14 08:40 64.94887 124.94671 36062 ft 499 kts 308°
2026-04-14 08:41 64.99493 124.82412 36090 ft 499 kts 308°
2026-04-14 08:41 65.04085 124.70127 36070 ft 498 kts 308°
2026-04-14 08:42 65.08650 124.57801 36068 ft 498 kts 308°
2026-04-14 08:42 65.13181 124.45378 36071 ft 497 kts 308°
2026-04-14 08:43 65.17709 124.32936 36072 ft 498 kts 308°
2026-04-14 08:43 65.22236 124.20472 36069 ft 497 kts 308°
2026-04-14 08:44 65.26759 124.07967 36081 ft 498 kts 308°
2026-04-14 08:44 65.31267 123.95434 36082 ft 497 kts 307°
2026-04-14 08:45 65.35765 123.82849 36083 ft 497 kts 307°
2026-04-14 08:45 65.40251 123.70223 36086 ft 497 kts 307°
2026-04-14 08:46 65.44729 123.57554 36099 ft 497 kts 307°
2026-04-14 08:46 65.49186 123.44871 36082 ft 497 kts 307°
2026-04-14 08:47 65.52887 123.34277 36088 ft 497 kts 307°
2026-04-14 08:47 65.57328 123.21500 36091 ft 497 kts 307°
2026-04-14 08:48 65.61763 123.08640 36093 ft 498 kts 306°
2026-04-14 08:48 65.66143 122.95637 36096 ft 498 kts 306°
2026-04-14 08:49 65.70530 122.82646 36096 ft 498 kts 306°
2026-04-14 08:49 65.74933 122.69656 36096 ft 498 kts 307°
2026-04-14 08:50 65.79333 122.56636 36096 ft 498 kts 306°
2026-04-14 08:50 65.83719 122.43564 36101 ft 498 kts 306°
2026-04-14 08:51 65.88093 122.30448 36111 ft 497 kts 306°
2026-04-14 08:51 65.92446 122.17321 36105 ft 496 kts 306°
2026-04-14 08:52 65.96787 122.04147 36110 ft 497 kts 306°
2026-04-14 08:52 66.01116 121.90932 36110 ft 497 kts 306°
2026-04-14 08:53 66.05434 121.77673 36112 ft 496 kts 306°
2026-04-14 08:53 66.09739 121.64376 36119 ft 496 kts 306°
2026-04-14 08:54 66.14020 121.51039 36111 ft 495 kts 305°
2026-04-14 08:54 66.18239 121.37569 36111 ft 495 kts 305°
2026-04-14 08:55 66.22469 121.24094 36114 ft 495 kts 305°
2026-04-14 08:55 66.26715 121.10629 36113 ft 496 kts 305°
2026-04-14 08:56 66.30959 120.97126 36122 ft 495 kts 305°
2026-04-14 08:56 66.35183 120.83610 36123 ft 494 kts 305°
2026-04-14 08:57 66.39381 120.70033 36120 ft 494 kts 305°
2026-04-14 08:57 66.43569 120.56403 36120 ft 495 kts 304°
2026-04-14 08:58 66.47746 120.42741 36121 ft 494 kts 305°
2026-04-14 08:58 66.51915 120.29034 36116 ft 494 kts 305°
2026-04-14 08:59 66.56066 120.15301 36118 ft 494 kts 304°
2026-04-14 08:59 66.60206 120.01516 36117 ft 494 kts 304°
2026-04-14 09:00 66.64329 119.87700 36116 ft 494 kts 304°
2026-04-14 09:00 66.68446 119.73823 36132 ft 494 kts 304°
2026-04-14 09:01 66.72519 119.59879 36126 ft 493 kts 304°
2026-04-14 09:01 66.76574 119.45894 36121 ft 493 kts 304°
2026-04-14 09:02 66.80669 119.31941 36123 ft 493 kts 304°
2026-04-14 09:02 66.84765 119.17985 36120 ft 493 kts 304°
2026-04-14 09:03 66.88853 119.03979 36124 ft 494 kts 304°
2026-04-14 09:03 66.92934 118.89903 36130 ft 494 kts 304°
2026-04-14 09:04 66.96994 118.75798 36125 ft 493 kts 304°
2026-04-14 09:04 67.01041 118.61646 36123 ft 493 kts 304°
2026-04-14 09:05 67.05071 118.47464 36128 ft 493 kts 304°
2026-04-14 09:05 67.09092 118.33225 36129 ft 493 kts 303°
2026-04-14 09:06 67.13098 118.18947 36139 ft 493 kts 303°
2026-04-14 09:06 67.17091 118.04616 36132 ft 492 kts 303°
2026-04-14 09:07 67.21065 117.90271 36131 ft 492 kts 303°
2026-04-14 09:07 67.24966 117.75759 36132 ft 492 kts 302°
2026-04-14 09:08 67.28824 117.61161 36128 ft 492 kts 302°
2026-04-14 09:08 67.32705 117.46571 36129 ft 492 kts 302°
2026-04-14 09:09 67.36591 117.31982 36134 ft 492 kts 302°
2026-04-14 09:09 67.40465 117.17339 36134 ft 492 kts 302°
2026-04-14 09:10 67.44324 117.02659 36135 ft 492 kts 302°
2026-04-14 09:10 67.48175 116.87908 36134 ft 491 kts 302°
2026-04-14 09:11 67.52008 116.73121 36141 ft 491 kts 302°
2026-04-14 09:11 67.55821 116.58315 36134 ft 490 kts 302°
2026-04-14 09:12 67.59621 116.43468 36133 ft 491 kts 302°
2026-04-14 09:12 67.63408 116.28567 36135 ft 491 kts 302°
2026-04-14 09:13 67.67177 116.13627 36133 ft 491 kts 301°
2026-04-14 09:13 67.70937 115.98625 36143 ft 491 kts 301°
2026-04-14 09:14 67.74635 115.83530 36131 ft 490 kts 301°
2026-04-14 09:14 67.78300 115.68356 36132 ft 490 kts 301°
2026-04-14 09:15 67.81992 115.53208 36140 ft 490 kts 301°
2026-04-14 09:15 67.85691 115.38039 36140 ft 490 kts 301°
2026-04-14 09:16 67.89376 115.22833 36147 ft 490 kts 301°
2026-04-14 09:16 67.93050 115.07569 36137 ft 490 kts 301°
2026-04-14 09:17 67.96702 114.92269 36137 ft 490 kts 301°
2026-04-14 09:17 68.00338 114.76925 36137 ft 489 kts 300°
2026-04-14 09:18 68.03959 114.61537 36132 ft 490 kts 300°
2026-04-14 09:18 68.07569 114.46087 36150 ft 490 kts 300°
2026-04-14 09:19 68.11169 114.30578 36136 ft 489 kts 300°
2026-04-14 09:19 68.14748 114.15043 36129 ft 489 kts 300°
2026-04-14 09:20 68.18284 113.99421 36131 ft 489 kts 299°
2026-04-14 09:20 68.21736 113.83800 36123 ft 489 kts 299°
2026-04-14 09:21 68.25242 113.68079 36131 ft 489 kts 299°
2026-04-14 09:21 68.28785 113.52244 36123 ft 489 kts 300°
2026-04-14 09:22 68.32287 113.36498 36118 ft 489 kts 299°
2026-04-14 09:22 68.35775 113.20690 36101 ft 489 kts 299°
2026-04-14 09:23 68.39248 113.04826 36102 ft 489 kts 299°
2026-04-14 09:23 68.42701 112.88940 36086 ft 489 kts 299°
2026-04-14 09:24 68.46122 112.73081 36094 ft 489 kts 299°
2026-04-14 09:24 68.49547 112.57097 36077 ft 489 kts 299°
2026-04-14 09:25 68.53465 112.41992 36091 ft 490 kts 313°
2026-04-14 09:25 68.58630 112.29783 36076 ft 492 kts 321°
2026-04-14 09:26 68.64009 112.18199 36105 ft 492 kts 320°
2026-04-14 09:26 68.69298 112.06276 36100 ft 492 kts 319°
2026-04-14 09:27 68.74519 111.94112 36099 ft 492 kts 319°
2026-04-14 09:27 68.79718 111.81842 36101 ft 492 kts 319°
2026-04-14 09:28 68.84912 111.69516 36107 ft 492 kts 318°
2026-04-14 09:28 68.89260 111.59110 36108 ft 492 kts 318°
2026-04-14 09:29 68.94445 111.46692 36111 ft 492 kts 318°
2026-04-14 09:29 68.99640 111.34247 36117 ft 492 kts 319°
2026-04-14 09:30 69.04825 111.21777 36117 ft 491 kts 319°
2026-04-14 09:30 69.09995 111.09254 36114 ft 492 kts 318°
2026-04-14 09:31 69.15157 110.96663 36113 ft 491 kts 318°
2026-04-14 09:31 69.20306 110.84026 36112 ft 491 kts 318°
2026-04-14 09:32 69.25407 110.71423 36119 ft 492 kts 318°
2026-04-14 09:33 69.33106 110.52245 36116 ft 492 kts 317°
2026-04-14 09:33 69.38231 110.39373 36123 ft 491 kts 317°
2026-04-14 09:34 69.43341 110.26454 36134 ft 491 kts 317°
2026-04-14 09:34 69.47331 110.16299 36133 ft 491 kts 317°
2026-04-14 09:35 69.52378 110.03124 36140 ft 492 kts 317°
2026-04-14 09:35 69.57426 109.89953 36140 ft 491 kts 317°
2026-04-14 09:36 69.62491 109.76776 36139 ft 491 kts 317°
2026-04-14 09:36 69.67551 109.63592 36153 ft 491 kts 317°
2026-04-14 09:37 69.72599 109.50331 36154 ft 491 kts 317°
2026-04-14 09:37 69.77634 109.37009 36151 ft 491 kts 317°
2026-04-14 09:38 69.82663 109.23619 36150 ft 491 kts 316°
2026-04-14 09:38 69.87680 109.10157 36155 ft 491 kts 316°
2026-04-14 09:39 69.92670 108.96558 36150 ft 491 kts 316°
2026-04-14 09:39 69.97663 108.82954 36150 ft 492 kts 316°
2026-04-14 09:40 70.02668 108.69323 36137 ft 491 kts 316°
2026-04-14 09:40 70.07666 108.55639 36145 ft 492 kts 316°
2026-04-14 09:41 70.12651 108.41892 36138 ft 492 kts 316°
2026-04-14 09:41 70.17630 108.28081 36145 ft 492 kts 316°
2026-04-14 09:42 70.22583 108.14221 36125 ft 490 kts 316°
2026-04-14 09:42 70.27514 108.00324 36138 ft 490 kts 316°
2026-04-14 09:43 70.32441 107.86353 36140 ft 490 kts 316°
2026-04-14 09:43 70.37354 107.72322 36129 ft 490 kts 316°
2026-04-14 09:44 70.42258 107.58221 36127 ft 489 kts 315°
2026-04-14 09:44 70.47152 107.44049 36134 ft 490 kts 316°
2026-04-14 09:45 70.51994 107.29666 36129 ft 491 kts 315°
2026-04-14 09:45 70.52420 107.28387 36128 ft 490 kts 315°
2026-04-14 09:49 70.52610 107.27819 36131 ft 490 kts 315°
2026-04-14 09:49 70.57446 107.13380 36122 ft 490 kts 315°
2026-04-14 09:50 70.62305 106.98946 36124 ft 491 kts 315°
2026-04-14 09:50 70.67159 106.84479 35971 ft 491 kts 315°
2026-04-14 09:50 70.69574 106.77241 35738 ft 487 kts 315°
2026-04-14 09:51 70.71971 106.70034 35335 ft 486 kts 315°
2026-04-14 09:51 70.74368 106.62792 34776 ft 486 kts 315°
2026-04-14 09:51 70.76756 106.55556 34217 ft 484 kts 315°
2026-04-14 09:51 70.79126 106.48350 33583 ft 482 kts 315°
2026-04-14 09:52 70.81485 106.41146 33005 ft 480 kts 315°
2026-04-14 09:52 70.83839 106.33935 32442 ft 480 kts 315°
2026-04-14 09:52 70.86190 106.26708 31898 ft 480 kts 315°
2026-04-14 09:52 70.88535 106.19473 31349 ft 479 kts 314°
2026-04-14 09:53 70.90875 106.12227 30805 ft 479 kts 314°
2026-04-14 09:53 70.93208 106.04981 30237 ft 478 kts 314°
2026-04-14 09:53 70.95536 105.97721 29499 ft 477 kts 314°
2026-04-14 09:53 70.97857 105.90457 28842 ft 477 kts 314°
2026-04-14 09:54 71.00177 105.83172 28202 ft 478 kts 314°
2026-04-14 09:54 71.02500 105.75851 27576 ft 479 kts 314°
2026-04-14 09:54 71.04823 105.68502 26959 ft 480 kts 314°
2026-04-14 09:54 71.07137 105.61114 26329 ft 478 kts 313°
2026-04-14 09:55 71.09409 105.53702 25708 ft 473 kts 313°
2026-04-14 09:55 71.11651 105.46352 25098 ft 468 kts 312°
2026-04-14 09:55 71.13876 105.39086 24491 ft 463 kts 312°
2026-04-14 09:55 71.16084 105.31904 23899 ft 458 kts 312°
2026-04-14 09:56 71.18275 105.24798 23226 ft 453 kts 312°
2026-04-14 09:56 71.20441 105.17768 22586 ft 449 kts 312°
2026-04-14 09:56 71.22589 105.10780 21992 ft 446 kts 312°
2026-04-14 09:56 71.24720 105.03827 21410 ft 442 kts 312°
2026-04-14 09:57 71.26827 104.96922 20839 ft 439 kts 312°
2026-04-14 09:57 71.28914 104.90057 20259 ft 435 kts 312°
2026-04-14 09:57 71.30987 104.83221 19714 ft 432 kts 313°
2026-04-14 09:57 71.32937 104.76764 19168 ft 428 kts 313°
2026-04-14 09:58 71.34968 104.70025 18618 ft 424 kts 313°
2026-04-14 09:58 71.36978 104.63330 18002 ft 419 kts 313°
2026-04-14 09:58 71.38957 104.56721 17428 ft 414 kts 313°
2026-04-14 09:58 71.40916 104.50158 16875 ft 410 kts 312°
2026-04-14 09:59 71.42855 104.43641 16346 ft 407 kts 312°
2026-04-14 09:59 71.44774 104.37169 15824 ft 403 kts 312°
2026-04-14 09:59 71.46670 104.30753 15307 ft 399 kts 312°
2026-04-14 09:59 71.48549 104.24373 14777 ft 396 kts 312°
2026-04-14 10:00 71.50412 104.18033 14269 ft 392 kts 312°
2026-04-14 10:00 71.52256 104.11737 13742 ft 389 kts 311°
2026-04-14 10:00 71.54080 104.05488 13213 ft 385 kts 311°
2026-04-14 10:00 71.55884 103.99292 12698 ft 381 kts 311°
2026-04-14 10:01 71.57667 103.93149 12203 ft 377 kts 311°
2026-04-14 10:01 71.59427 103.87063 11715 ft 373 kts 311°
2026-04-14 10:01 71.61171 103.81022 11256 ft 369 kts 311°
2026-04-14 10:01 71.62894 103.75042 10986 ft 366 kts 311°
2026-04-14 10:02 71.64556 103.69142 10886 ft 347 kts 310°
2026-04-14 10:02 71.66098 103.63582 10775 ft 325 kts 309°
2026-04-14 10:02 71.67528 103.58327 10660 ft 303 kts 305°
2026-04-14 10:02 71.68563 103.52799 10541 ft 282 kts 292°
2026-04-14 10:03 71.69342 103.47070 10326 ft 284 kts 289°
2026-04-14 10:03 71.70066 103.41259 9913 ft 282 kts 288°
2026-04-14 10:03 71.70778 103.35466 9424 ft 279 kts 288°
2026-04-14 10:03 71.71481 103.29763 8993 ft 274 kts 288°
2026-04-14 10:04 71.72176 103.24140 8576 ft 272 kts 288°
2026-04-14 10:04 71.72867 103.18535 8160 ft 272 kts 288°
2026-04-14 10:04 71.73558 103.12941 7756 ft 270 kts 288°
2026-04-14 10:04 71.74242 103.07396 7380 ft 268 kts 288°
2026-04-14 10:05 71.74917 103.01896 7023 ft 266 kts 288°
2026-04-14 10:05 71.75592 102.96404 6664 ft 265 kts 288°
2026-04-14 10:05 71.76264 102.90945 6285 ft 263 kts 288°
2026-04-14 10:05 71.76929 102.85502 5932 ft 262 kts 288°
2026-04-14 10:06 71.77587 102.80083 5509 ft 262 kts 288°
2026-04-14 10:06 71.78240 102.74672 5127 ft 259 kts 288°
2026-04-14 10:06 71.78886 102.69347 4786 ft 256 kts 289°
2026-04-14 10:06 71.79528 102.64036 4456 ft 257 kts 289°
2026-04-14 10:07 71.80171 102.58703 4150 ft 256 kts 289°
2026-04-14 10:07 71.80807 102.53406 3827 ft 254 kts 289°
2026-04-14 10:07 71.81438 102.48128 3515 ft 254 kts 289°
2026-04-14 10:07 71.82067 102.42850 3199 ft 253 kts 289°
2026-04-14 10:08 71.82690 102.37615 3005 ft 249 kts 290°
2026-04-14 10:08 71.83308 102.32393 2990 ft 251 kts 289°
2026-04-14 10:08 71.83926 102.27142 2985 ft 252 kts 290°
2026-04-14 10:08 71.84336 102.23671 2987 ft 250 kts 289°
2026-04-14 10:09 71.84939 102.18595 2966 ft 238 kts 290°
2026-04-14 10:09 71.85527 102.13626 2985 ft 239 kts 290°
2026-04-14 10:09 71.86298 102.08912 2981 ft 240 kts 308°
2026-04-14 10:09 71.87572 102.05552 2979 ft 239 kts 336°
2026-04-14 10:10 71.89178 102.04560 2983 ft 236 kts
2026-04-14 10:10 71.90717 102.06175 2995 ft 234 kts 36°
2026-04-14 10:10 71.91840 102.09892 2730 ft 232 kts 59°
2026-04-14 10:10 71.92629 102.14229 2401 ft 217 kts 63°
2026-04-14 10:11 71.93296 102.18275 2072 ft 191 kts 66°
2026-04-14 10:11 71.93848 102.22000 1826 ft 176 kts 67°
2026-04-14 10:11 71.94337 102.25340 1519 ft 155 kts 67°
2026-04-14 10:11 71.94793 102.28454 1331 ft 152 kts 67°
2026-04-14 10:12 71.95238 102.31524 1124 ft 151 kts 66°
2026-04-14 10:12 71.95685 102.34576 886 ft 150 kts 66°
2026-04-14 10:12 71.96130 102.37610 684 ft 150 kts 66°
2026-04-14 10:12 71.96570 102.40619 469 ft 148 kts 66°
2026-04-14 10:13 71.97012 102.43608 269 ft 147 kts 65°
2026-04-14 10:13 71.97453 102.46618 113 ft 143 kts 69°
2026-04-14 10:13 71.97807 102.49079 110 ft 97 kts 65°
2026-04-14 10:13 71.98034 102.50633 112 ft 52 kts 65°
2026-04-14 10:14 71.98114 102.51192 111 ft 19 kts 65°